{"data":{"norad_id":52114,"intl_designator":"2022-029AC","name":"STARLINK-3737","alt_names":[],"object_type":"PAYLOAD","status":"ACTIVE","operator":null,"country":"US","launch_date":"2022-03-19","launch_site_code":"AFETR","launch_vehicle":null,"mission":null,"orbit_class":"UNKNOWN","rcs_meters":null,"size_class":null,"mass_kg":null,"dimensions":null,"purposes":["comms"],"wikipedia_slug":null,"has_3d_model":false,"image_url":null,"decayed_at":null,"tle_current":{"epoch":"2026-05-25T03:01:51.093120Z","epoch_age_seconds":74839,"freshness":"FRESH","line1":"1 52114U 22029AC  26145.12628580  .00000623  00000+0  57226-4 0  9994","line2":"2 52114  53.2150  95.9805 0001179  80.7318 279.3807 15.08839574232320","mean_motion":15.08839574,"eccentricity":0.0001179,"inclination_deg":53.215,"raan_deg":95.9805,"arg_perigee_deg":80.7318,"mean_anomaly_deg":279.3807,"bstar":5.7226e-5,"rev_number":23232,"period_min":95.43758162324,"perigee_km":538.92907282461,"apogee_km":540.56030932736,"semimajor_km":6917.881691076,"source":"CELESTRAK","updated_at":"2026-05-25T13:38:17.073859Z"}}}